This demonstration page uses our WeatherBlox Daily Observations layout. Learn more.

Left ArrowRight Arrow

53.62937, 11.41316

Hourly Observations for December 18, 2019

Temp ( °F °C ) Dew Point ( °F °C ) Humidity (%) Winds ( mph kmh ) Pressure ( in mb ) Visibility ( mi km ) Precip ( " mm )
6:50 am 06:50 Partly Cloudy 43 6 39 4 87 87 WSW 7 11 29.80 1009 30 48 N/A
7:20 am 07:20 Partly Cloudy 43 6 39 4 87 87 WSW 8 13 29.83 1010 30 48 N/A
7:50 am 07:50 Mostly Cloudy 43 6 39 4 87 87 WSW 12 19 29.86 1011 30 48 N/A
8:20 am 08:20 Mostly Cloudy 43 6 39 4 87 87 W 9 15 29.86 1011 30 48 N/A
8:50 am 08:50 Partly Cloudy 43 6 39 4 87 87 WSW 9 15 29.89 1012 30 48 N/A
9:20 am 09:20 Mostly Cloudy 43 6 41 5 93 93 WSW 10 17 29.92 1013 30 48 N/A
9:50 am 09:50 Partly Cloudy 43 6 39 4 87 87 SW 13 20 29.92 1013 30 48 N/A
10:20 am 10:20 Partly Cloudy 43 6 39 4 87 87 SW 10 17 29.95 1014 30 48 N/A
10:50 am 10:50 Partly Cloudy 43 6 39 4 87 87 WSW 10 17 29.95 1014 30 48 N/A
11:20 am 11:20 Mostly Sunny 45 7 39 4 81 81 WSW 14 22 29.95 1014 30 48 N/A
11:50 am 11:50 Mostly Sunny 45 7 39 4 81 81 WSW 14 22 29.97 1015 30 48 N/A
12:20 pm 12:20 Mostly Sunny 45 7 39 4 81 81 WSW 10 17 29.97 1015 30 48 N/A
12:50 pm 12:50 Partly Cloudy 45 7 41 5 87 87 SW 8 13 29.97 1015 30 48 N/A
1:20 pm 13:20 Partly Cloudy 46 8 41 5 82 82 SW 9 15 29.97 1015 30 48 N/A
1:50 pm 13:50 Mostly Cloudy 46 8 41 5 82 82 SW 9 15 30.00 1016 30 48 N/A
2:20 pm 14:20 Partly Cloudy 45 7 41 5 87 87 WSW 9 15 30.00 1016 30 48 N/A
2:50 pm 14:50 Mostly Cloudy 45 7 37 3 76 76 WSW 9 15 30.00 1016 30 48 N/A
3:20 pm 15:20 Partly Cloudy 45 7 41 5 87 87 SW 8 13 30.03 1017 30 48 N/A
3:50 pm 15:50 Partly Cloudy 45 7 41 5 87 87 SW 7 11 30.03 1017 30 48 N/A
4:20 pm 16:20 Partly Cloudy 43 6 41 5 93 93 SSW 6 9 30.03 1017 30 48 N/A
4:50 pm 16:50 Mostly Cloudy 43 6 41 5 93 93 SSW 5 7 30.06 1018 30 48 N/A
5:20 pm 17:20 Mostly Cloudy 43 6 39 4 87 87 S 3 6 30.06 1018 30 48 N/A
5:50 pm 17:50 Mostly Cloudy 43 6 41 5 93 93 SSW 3 6 30.06 1018 30 48 N/A
6:20 pm 18:20 Mostly Cloudy 43 6 39 4 87 87 SSW 3 6 30.06 1018 30 48 N/A
6:50 pm 18:50 Mostly Cloudy 41 5 39 4 93 93 SSE 2 4 30.06 1018 4 6 N/A
7:20 pm 19:20 Mostly Clear with Mist and Fog 41 5 39 4 93 93 VRB 2 4 30.06 1018 2 3 N/A
7:50 pm 19:50 Mostly Clear with Mist and Fog 39 4 37 3 93 93 SSE 3 6 30.09 1019 2 3 N/A

Powered by AerisWeather